Time,TemperatureF,DewpointF,PressureIn,WindDirection,WindDirectionDegrees,WindSpeedMPH,WindSpeedGustMPH,Humidity,HourlyPrecipIn,Conditions,Clouds,dailyrainin,SoftwareType,DateUTC
2013-09-01 00:01:00,69.8,52.9,29.18,NNW,332,2.7,4.0,55,0.08,,,0.00,VWS V13.01,2013-09-01 04:01:00,
2013-09-01 00:02:00,69.6,53.2,29.18,NW,309,2.7,3.1,56,0.08,,,0.08,VWS V13.01,2013-09-01 04:02:00,
2013-09-01 00:07:00,69.6,53.2,29.18,NW,318,2.7,3.6,56,0.08,,,0.08,VWS V13.01,2013-09-01 04:07:00,
2013-09-01 00:12:00,69.6,53.7,29.18,WNW,293,2.7,2.7,57,0.12,,,0.12,VWS V13.01,2013-09-01 04:12:00,
2013-09-01 00:17:00,69.6,53.7,29.18,NNW,346,2.2,3.1,57,0.12,,,0.12,VWS V13.01,2013-09-01 04:17:00,
2013-09-01 00:22:00,69.6,53.7,29.18,North,353,0.0,2.2,57,0.12,,,0.12,VWS V13.01,2013-09-01 04:22:00,
2013-09-01 00:27:00,69.6,54.2,29.18,NNW,348,0.0,0.0,58,0.16,,,0.16,VWS V13.01,2013-09-01 04:27:00,
2013-09-01 00:32:00,69.6,54.2,29.18,NNW,329,3.6,3.6,58,0.16,,,0.16,VWS V13.01,2013-09-01 04:32:00,
2013-09-01 00:37:00,69.6,54.7,29.18,North,357,2.7,4.0,59,0.16,,,0.16,VWS V13.01,2013-09-01 04:37:00,
2013-09-01 00:42:00,69.6,54.7,29.18,North,349,0.0,3.6,59,0.16,,,0.16,VWS V13.01,2013-09-01 04:42:00,
2013-09-01 00:47:00,69.4,54.5,29.18,NW,323,0.0,2.2,59,0.16,,,0.20,VWS V13.01,2013-09-01 04:47:00,
2013-09-01 00:52:00,69.4,54.0,29.18,South,190,2.7,5.8,58,0.16,,,0.20,VWS V13.01,2013-09-01 04:52:00,
2013-09-01 00:57:00,69.6,53.7,29.18,East,99,3.1,4.0,57,0.16,,,0.20,VWS V13.01,2013-09-01 04:57:00,
2013-09-01 01:02:00,69.6,51.8,29.15,ENE,75,5.4,6.3,53,0.16,,,0.24,VWS V13.01,2013-09-01 05:02:00,
2013-09-01 01:07:00,69.6,51.2,29.15,ESE,113,5.8,5.8,52,0.16,,,0.24,VWS V13.01,2013-09-01 05:07:00,
2013-09-01 01:12:00,69.8,50.3,29.15,East,84,6.3,6.3,50,0.12,,,0.24,VWS V13.01,2013-09-01 05:12:00,
2013-09-01 01:17:00,70.0,47.1,29.12,ENE,70,8.1,8.1,44,0.12,,,0.24,VWS V13.01,2013-09-01 05:17:00,
2013-09-01 01:22:00,70.3,46.8,29.12,ESE,116,2.7,3.6,43,0.12,,,0.24,VWS V13.01,2013-09-01 05:22:00,
2013-09-01 01:27:00,70.3,45.5,29.12,East,95,4.9,5.4,41,0.12,,,0.24,VWS V13.01,2013-09-01 05:27:00,
2013-09-01 01:32:00,70.3,44.9,29.09,ENE,70,8.3,8.3,40,0.08,,,0.24,VWS V13.01,2013-09-01 05:32:00,
2013-09-01 01:37:00,70.5,43.7,29.09,NNE,21,0.0,0.0,38,0.08,,,0.24,VWS V13.01,2013-09-01 05:37:00,
2013-09-01 01:42:00,70.3,44.2,29.09,NNE,21,2.2,2.7,39,0.08,,,0.24,VWS V13.01,2013-09-01 05:42:00,
2013-09-01 01:47:00,70.0,45.2,29.09,NNE,21,0.0,2.2,41,0.04,,,0.24,VWS V13.01,2013-09-01 05:47:00,
2013-09-01 01:52:00,69.6,45.5,29.09,NNE,21,0.0,0.0,42,0.04,,,0.24,VWS V13.01,2013-09-01 05:52:00,
2013-09-01 01:57:00,69.4,46.0,29.09,NNE,14,2.7,3.6,43,0.04,,,0.24,VWS V13.01,2013-09-01 05:57:00,
2013-09-01 02:02:00,69.1,46.3,29.09,NNE,14,0.0,0.0,44,0.00,,,0.24,VWS V13.01,2013-09-01 06:02:00,
2013-09-01 02:07:00,69.1,46.3,29.09,NE,43,0.0,0.0,44,0.00,,,0.24,VWS V13.01,2013-09-01 06:07:00,
2013-09-01 02:12:00,69.1,47.5,29.09,SE,127,2.2,2.7,46,0.00,,,0.24,VWS V13.01,2013-09-01 06:12:00,
2013-09-01 02:17:00,69.4,47.8,29.09,NNE,27,3.1,3.1,46,0.00,,,0.24,VWS V13.01,2013-09-01 06:17:00,
2013-09-01 02:22:00,70.2,46.6,29.09,NNE,17,4.0,4.5,43,0.00,,,0.24,VWS V13.01,2013-09-01 06:22:00,
2013-09-01 02:27:00,70.7,44.5,29.09,ENE,62,2.7,4.0,39,0.00,,,0.24,VWS V13.01,2013-09-01 06:27:00,
2013-09-01 02:32:00,70.3,44.2,29.09,ENE,62,2.7,2.7,39,0.00,,,0.24,VWS V13.01,2013-09-01 06:32:00,
2013-09-01 02:37:00,69.6,44.9,29.09,ENE,62,0.0,2.2,41,0.00,,,0.24,VWS V13.01,2013-09-01 06:37:00,
2013-09-01 02:42:00,69.4,46.0,29.09,ENE,62,2.2,3.1,43,0.00,,,0.24,VWS V13.01,2013-09-01 06:42:00,
2013-09-01 02:47:00,69.3,45.8,29.12,ENE,62,0.0,0.0,43,0.00,,,0.24,VWS V13.01,2013-09-01 06:47:00,
2013-09-01 02:52:00,69.3,45.8,29.12,ENE,62,0.0,0.0,43,0.00,,,0.24,VWS V13.01,2013-09-01 06:52:00,
2013-09-01 02:57:00,68.9,45.5,29.12,ENE,62,0.0,0.0,43,0.00,,,0.24,VWS V13.01,2013-09-01 06:57:00,
2013-09-01 03:02:00,68.5,46.4,29.09,SE,143,2.2,2.7,45,0.00,,,0.24,VWS V13.01,2013-09-01 07:02:00,
2013-09-01 03:07:00,68.4,46.2,29.09,SE,124,0.0,0.0,45,0.00,,,0.24,VWS V13.01,2013-09-01 07:07:00,
2013-09-01 03:12:00,68.4,47.4,29.09,SE,139,2.7,3.1,47,0.00,,,0.24,VWS V13.01,2013-09-01 07:12:00,
2013-09-01 03:17:00,68.2,48.3,29.12,SW,226,2.2,3.6,49,0.00,,,0.24,VWS V13.01,2013-09-01 07:17:00,
2013-09-01 03:22:00,68.2,47.8,29.12,SW,226,0.0,0.0,48,0.00,,,0.24,VWS V13.01,2013-09-01 07:22:00,
2013-09-01 03:27:00,68.2,48.3,29.12,SW,226,0.0,0.0,49,0.00,,,0.24,VWS V13.01,2013-09-01 07:27:00,
2013-09-01 03:32:00,68.2,48.3,29.12,North,357,0.0,0.0,49,0.00,,,0.24,VWS V13.01,2013-09-01 07:32:00,
2013-09-01 03:37:00,68.0,48.7,29.12,North,357,0.0,0.0,50,0.00,,,0.24,VWS V13.01,2013-09-01 07:37:00,
2013-09-01 03:42:00,68.0,48.7,29.12,North,357,0.0,0.0,50,0.00,,,0.24,VWS V13.01,2013-09-01 07:42:00,
2013-09-01 03:47:00,68.0,49.2,29.12,North,357,0.0,0.0,51,0.00,,,0.24,VWS V13.01,2013-09-01 07:47:00,
2013-09-01 03:52:00,68.0,49.2,29.12,North,357,0.0,0.0,51,0.00,,,0.24,VWS V13.01,2013-09-01 07:52:00,
2013-09-01 03:57:00,68.0,49.7,29.12,North,10,0.0,0.0,52,0.00,,,0.24,VWS V13.01,2013-09-01 07:57:00,
2013-09-01 04:02:00,68.0,50.2,29.12,East,91,0.0,0.0,53,0.00,,,0.24,VWS V13.01,2013-09-01 08:02:00,
2013-09-01 04:07:00,67.8,51.1,29.12,South,169,0.0,0.0,55,0.00,,,0.24,VWS V13.01,2013-09-01 08:07:00,
2013-09-01 04:12:00,67.8,51.6,29.12,SE,131,0.0,3.1,56,0.00,,,0.24,VWS V13.01,2013-09-01 08:12:00,
2013-09-01 04:17:00,67.8,52.0,29.12,SE,131,0.0,2.7,57,0.00,,,0.24,VWS V13.01,2013-09-01 08:17:00,
2013-09-01 04:22:00,67.8,52.5,29.12,ESE,111,3.1,4.9,58,0.00,,,0.24,VWS V13.01,2013-09-01 08:22:00,
2013-09-01 04:27:00,68.0,53.6,29.12,SE,124,3.6,4.0,60,0.00,,,0.24,VWS V13.01,2013-09-01 08:27:00,
2013-09-01 04:32:00,68.2,53.8,29.12,East,79,6.3,6.3,60,0.00,,,0.24,VWS V13.01,2013-09-01 08:32:00,
2013-09-01 04:37:00,68.4,54.0,29.12,East,83,5.8,6.3,60,0.00,,,0.24,VWS V13.01,2013-09-01 08:37:00,
2013-09-01 04:42:00,68.5,51.8,29.12,East,98,5.4,5.8,55,0.00,,,0.24,VWS V13.01,2013-09-01 08:42:00,
2013-09-01 04:47:00,68.9,49.0,29.12,East,95,4.0,6.3,49,0.00,,,0.24,VWS V13.01,2013-09-01 08:47:00,
2013-09-01 04:52:00,69.3,47.6,29.12,ESE,107,5.8,5.8,46,0.00,,,0.24,VWS V13.01,2013-09-01 08:52:00,
2013-09-01 04:57:00,69.4,47.2,29.12,East,93,6.7,6.7,45,0.00,,,0.24,VWS V13.01,2013-09-01 08:57:00,
2013-09-01 05:02:00,69.4,47.2,29.09,ESE,103,5.8,7.6,45,0.00,,,0.24,VWS V13.01,2013-09-01 09:02:00,
2013-09-01 05:07:00,69.3,47.0,29.09,ESE,117,7.2,7.2,45,0.00,,,0.24,VWS V13.01,2013-09-01 09:07:00,
2013-09-01 05:12:00,69.3,47.0,29.09,East,83,4.0,6.3,45,0.00,,,0.24,VWS V13.01,2013-09-01 09:12:00,
2013-09-01 05:17:00,69.4,46.6,29.09,East,100,5.8,8.7,44,0.00,,,0.24,VWS V13.01,2013-09-01 09:17:00,
2013-09-01 05:22:00,69.4,46.6,29.09,East,95,4.0,7.2,44,0.00,,,0.24,VWS V13.01,2013-09-01 09:22:00,
2013-09-01 05:27:00,69.4,46.6,29.09,ENE,78,4.0,6.3,44,0.00,,,0.24,VWS V13.01,2013-09-01 09:27:00,
2013-09-01 05:32:00,69.4,46.6,29.09,East,94,4.9,5.8,44,0.00,,,0.24,VWS V13.01,2013-09-01 09:32:00,
2013-09-01 05:37:00,69.6,46.8,29.09,East,99,5.4,6.3,44,0.00,,,0.24,VWS V13.01,2013-09-01 09:37:00,
2013-09-01 05:42:00,69.4,47.2,29.09,ESE,106,5.8,6.3,45,0.00,,,0.24,VWS V13.01,2013-09-01 09:42:00,
2013-09-01 05:47:00,69.3,47.0,29.09,East,83,4.0,4.9,45,0.00,,,0.24,VWS V13.01,2013-09-01 09:47:00,
2013-09-01 05:52:00,69.3,47.0,29.09,East,91,3.1,4.9,45,0.00,,,0.24,VWS V13.01,2013-09-01 09:52:00,
2013-09-01 05:57:00,69.3,47.6,29.09,East,87,3.1,4.0,46,0.00,,,0.24,VWS V13.01,2013-09-01 09:57:00,
2013-09-01 06:02:00,69.3,47.6,29.12,ENE,67,4.0,4.0,46,0.00,,,0.24,VWS V13.01,2013-09-01 10:02:00,
2013-09-01 06:07:00,69.3,48.2,29.12,ESE,114,2.2,3.1,47,0.00,,,0.24,VWS V13.01,2013-09-01 10:07:00,
2013-09-01 06:12:00,69.3,48.2,29.12,SE,134,3.6,3.6,47,0.00,,,0.24,VWS V13.01,2013-09-01 10:12:00,
2013-09-01 06:17:00,69.1,48.0,29.12,ESE,123,2.2,3.1,47,0.00,,,0.24,VWS V13.01,2013-09-01 10:17:00,
2013-09-01 06:22:00,68.9,48.4,29.12,SE,128,2.2,2.2,48,0.00,,,0.24,VWS V13.01,2013-09-01 10:22:00,
2013-09-01 06:27:00,68.7,48.3,29.12,SE,128,0.0,0.0,48,0.00,,,0.24,VWS V13.01,2013-09-01 10:27:00,
2013-09-01 06:32:00,68.5,48.6,29.12,SE,128,0.0,2.2,49,0.00,,,0.24,VWS V13.01,2013-09-01 10:32:00,
2013-09-01 06:37:00,68.5,48.6,29.12,ESE,119,2.7,2.7,49,0.00,,,0.24,VWS V13.01,2013-09-01 10:37:00,
2013-09-01 06:42:00,68.4,50.1,29.12,SE,128,4.0,4.9,52,0.00,,,0.24,VWS V13.01,2013-09-01 10:42:00,
2013-09-01 06:47:00,68.4,50.6,29.12,ESE,117,3.1,3.6,53,0.00,,,0.24,VWS V13.01,2013-09-01 10:47:00,
2013-09-01 06:52:00,68.2,51.4,29.12,ESE,114,2.7,3.1,55,0.00,,,0.24,VWS V13.01,2013-09-01 10:52:00,
2013-09-01 06:57:00,68.4,52.1,29.12,ESE,119,0.0,4.9,56,0.00,,,0.24,VWS V13.01,2013-09-01 10:57:00,
2013-09-01 07:02:00,68.4,52.5,29.12,SE,130,2.2,2.7,57,0.00,,,0.24,VWS V13.01,2013-09-01 11:02:00,
2013-09-01 07:07:00,68.4,52.5,29.12,East,97,4.0,4.0,57,0.00,,,0.24,VWS V13.01,2013-09-01 11:07:00,
2013-09-01 07:12:00,68.4,53.0,29.12,East,87,4.0,4.9,58,0.00,,,0.24,VWS V13.01,2013-09-01 11:12:00,
2013-09-01 07:17:00,68.4,53.0,29.12,East,101,3.1,4.0,58,0.00,,,0.24,VWS V13.01,2013-09-01 11:17:00,
2013-09-01 07:22:00,68.4,53.0,29.12,ENE,75,4.0,4.0,58,0.00,,,0.24,VWS V13.01,2013-09-01 11:22:00,
2013-09-01 07:27:00,68.4,53.0,29.12,East,80,3.1,4.0,58,0.00,,,0.24,VWS V13.01,2013-09-01 11:27:00,
2013-09-01 07:32:00,68.4,52.5,29.12,East,101,3.6,4.9,57,0.00,,,0.24,VWS V13.01,2013-09-01 11:32:00,
2013-09-01 07:37:00,68.4,52.5,29.12,SE,135,3.1,4.5,57,0.00,,,0.24,VWS V13.01,2013-09-01 11:37:00,
2013-09-01 07:42:00,68.4,52.5,29.12,SE,136,2.7,5.4,57,0.00,,,0.24,VWS V13.01,2013-09-01 11:42:00,
2013-09-01 07:47:00,68.4,53.0,29.12,East,85,3.6,5.8,58,0.00,,,0.24,VWS V13.01,2013-09-01 11:47:00,
2013-09-01 07:52:00,68.4,53.0,29.12,East,92,5.4,6.3,58,0.00,,,0.24,VWS V13.01,2013-09-01 11:52:00,
2013-09-01 07:57:00,68.5,53.2,29.12,East,101,5.4,5.8,58,0.00,,,0.24,VWS V13.01,2013-09-01 11:57:00,
2013-09-01 08:02:00,68.5,53.2,29.12,East,90,4.0,5.4,58,0.00,,,0.24,VWS V13.01,2013-09-01 12:02:00,
2013-09-01 08:07:00,68.5,52.7,29.12,East,89,5.4,6.3,57,0.00,,,0.24,VWS V13.01,2013-09-01 12:07:00,
2013-09-01 08:12:00,68.7,52.9,29.12,East,85,3.6,5.4,57,0.00,,,0.24,VWS V13.01,2013-09-01 12:12:00,
2013-09-01 08:17:00,68.7,52.4,29.12,ENE,73,3.1,5.4,56,0.00,,,0.24,VWS V13.01,2013-09-01 12:17:00,
2013-09-01 08:22:00,68.9,52.1,29.12,East,81,6.3,6.3,55,0.00,,,0.24,VWS V13.01,2013-09-01 12:22:00,
2013-09-01 08:27:00,69.3,51.4,29.12,East,85,4.0,5.4,53,0.00,,,0.24,VWS V13.01,2013-09-01 12:27:00,
2013-09-01 08:32:00,69.6,51.2,29.12,SE,125,4.0,4.0,52,0.00,,,0.24,VWS V13.01,2013-09-01 12:32:00,
2013-09-01 08:37:00,69.8,50.9,29.12,ESE,111,4.0,4.0,51,0.00,,,0.24,VWS V13.01,2013-09-01 12:37:00,
2013-09-01 08:42:00,69.8,50.9,29.12,ESE,107,2.2,2.2,51,0.00,,,0.24,VWS V13.01,2013-09-01 12:42:00,
2013-09-01 08:47:00,70.0,51.0,29.12,SE,143,2.7,4.0,51,0.00,,,0.24,VWS V13.01,2013-09-01 12:47:00,
2013-09-01 08:52:00,70.3,51.4,29.12,East,89,5.4,5.4,51,0.00,,,0.24,VWS V13.01,2013-09-01 12:52:00,
2013-09-01 08:57:00,70.7,51.7,29.12,ESE,120,2.7,2.7,51,0.00,,,0.24,VWS V13.01,2013-09-01 12:57:00,
2013-09-01 09:02:00,71.2,51.7,29.12,ESE,117,4.0,4.0,50,0.00,,,0.24,VWS V13.01,2013-09-01 13:02:00,
2013-09-01 09:07:00,71.6,49.2,29.12,ESE,111,3.6,4.0,45,0.00,,,0.24,VWS V13.01,2013-09-01 13:07:00,
2013-09-01 09:13:00,72.0,47.6,29.12,SE,130,3.1,5.8,42,0.00,,,0.24,VWS V13.01,2013-09-01 13:13:00,
2013-09-01 09:17:00,72.3,45.3,29.12,ESE,105,5.4,7.6,38,0.00,,,0.24,VWS V13.01,2013-09-01 13:17:00,
2013-09-01 09:23:00,72.1,44.5,29.12,East,80,6.3,7.2,37,0.00,,,0.24,VWS V13.01,2013-09-01 13:23:00,
2013-09-01 09:28:00,71.8,45.5,29.12,ESE,112,5.8,8.1,39,0.00,,,0.24,VWS V13.01,2013-09-01 13:28:00,
2013-09-01 09:33:00,71.6,46.7,29.12,East,89,2.7,8.7,41,0.00,,,0.24,VWS V13.01,2013-09-01 13:33:00,
2013-09-01 09:38:00,71.4,47.8,29.12,SE,126,4.0,5.8,43,0.00,,,0.24,VWS V13.01,2013-09-01 13:38:00,
2013-09-01 09:43:00,71.2,47.6,29.12,ESE,108,7.6,8.1,43,0.00,,,0.24,VWS V13.01,2013-09-01 13:43:00,
2013-09-01 09:48:00,71.2,48.2,29.12,ENE,78,6.3,8.3,44,0.00,,,0.24,VWS V13.01,2013-09-01 13:48:00,
2013-09-01 09:53:00,71.6,48.6,29.12,ESE,117,4.0,4.0,44,0.00,,,0.24,VWS V13.01,2013-09-01 13:53:00,
2013-09-01 09:58:00,71.8,47.5,29.12,SE,128,4.0,7.6,42,0.00,,,0.24,VWS V13.01,2013-09-01 13:58:00,
2013-09-01 10:03:00,72.1,47.8,29.12,ESE,110,5.4,10.1,42,0.00,,,0.24,VWS V13.01,2013-09-01 14:03:00,
2013-09-01 10:08:00,72.1,47.2,29.12,East,79,6.3,8.7,41,0.00,,,0.24,VWS V13.01,2013-09-01 14:08:00,
2013-09-01 10:13:00,72.1,47.2,29.12,East,92,3.1,5.8,41,0.00,,,0.24,VWS V13.01,2013-09-01 14:13:00,
2013-09-01 10:18:00,72.7,48.3,29.12,SE,136,4.0,4.0,42,0.00,,,0.24,VWS V13.01,2013-09-01 14:18:00,
2013-09-01 10:23:00,73.4,47.6,29.12,ESE,108,4.0,4.0,40,0.00,,,0.24,VWS V13.01,2013-09-01 14:23:00,
2013-09-01 10:28:00,73.6,45.0,29.12,East,84,0.0,0.0,36,0.00,,,0.24,VWS V13.01,2013-09-01 14:28:00,
2013-09-01 10:33:00,73.8,44.4,29.15,East,98,0.0,3.6,35,0.00,,,0.24,VWS V13.01,2013-09-01 14:33:00,
2013-09-01 10:38:00,73.8,44.4,29.15,ENE,78,2.2,3.1,35,0.00,,,0.24,VWS V13.01,2013-09-01 14:38:00,
2013-09-01 10:43:00,73.8,45.2,29.15,ENE,69,0.0,2.2,36,0.00,,,0.24,VWS V13.01,2013-09-01 14:43:00,
2013-09-01 10:48:00,74.1,45.5,29.15,ENE,69,0.0,0.0,36,0.00,,,0.24,VWS V13.01,2013-09-01 14:48:00,
2013-09-01 10:53:00,74.5,45.8,29.15,ENE,69,0.0,0.0,36,0.00,,,0.24,VWS V13.01,2013-09-01 14:53:00,
2013-09-01 10:58:00,74.8,44.6,29.15,SE,137,3.6,5.8,34,0.00,,,0.24,VWS V13.01,2013-09-01 14:58:00,
2013-09-01 11:03:00,75.2,44.2,29.15,SSE,157,4.9,4.9,33,0.00,,,0.24,VWS V13.01,2013-09-01 15:03:00,
2013-09-01 11:08:00,75.4,44.3,29.15,SE,133,7.6,7.6,33,0.00,,,0.24,VWS V13.01,2013-09-01 15:08:00,
2013-09-01 11:13:00,75.7,43.8,29.15,ENE,72,4.0,8.1,32,0.00,,,0.24,VWS V13.01,2013-09-01 15:13:00,
2013-09-01 11:18:00,75.7,43.8,29.15,ENE,72,0.0,6.3,32,0.00,,,0.24,VWS V13.01,2013-09-01 15:18:00,
2013-09-01 11:23:00,75.9,43.1,29.15,ESE,110,0.0,4.0,31,0.00,,,0.24,VWS V13.01,2013-09-01 15:23:00,
2013-09-01 11:28:00,75.9,43.1,29.15,ESE,102,4.0,5.8,31,0.00,,,0.24,VWS V13.01,2013-09-01 15:28:00,
2013-09-01 11:33:00,76.1,43.3,29.15,East,98,0.0,2.7,31,0.00,,,0.24,VWS V13.01,2013-09-01 15:33:00,
2013-09-01 11:38:00,77.2,42.5,29.15,ESE,111,4.0,5.4,29,0.00,,,0.24,VWS V13.01,2013-09-01 15:38:00,
2013-09-01 11:43:00,77.7,40.1,29.15,SE,145,2.7,6.3,26,0.00,,,0.24,VWS V13.01,2013-09-01 15:43:00,
2013-09-01 11:50:00,78.3,37.5,29.15,South,171,0.0,6.3,23,0.00,,,0.24,VWS V13.01,2013-09-01 15:50:00,
2013-09-01 12:00:00,79.2,37.1,29.15,East,85,4.0,5.4,22,0.00,,,0.00,VWS V13.01,2013-09-01 16:00:00,
2013-09-01 12:10:00,80.1,36.7,29.15,SSW,196,2.7,5.4,21,0.00,,,0.00,VWS V13.01,2013-09-01 16:10:00,
2013-09-01 12:20:00,80.1,36.7,29.15,East,87,0.0,2.7,21,0.00,,,0.00,VWS V13.01,2013-09-01 16:20:00,
2013-09-01 12:25:00,80.8,36.0,29.15,NW,313,3.1,3.1,20,0.00,,,0.00,VWS V13.01,2013-09-01 16:25:00,
2013-09-01 12:35:00,81.1,35.0,29.12,North,353,2.7,3.6,19,0.00,,,0.00,VWS V13.01,2013-09-01 16:35:00,
2013-09-01 12:40:00,81.0,36.2,29.12,North,357,2.2,3.1,20,0.00,,,0.00,VWS V13.01,2013-09-01 16:40:00,
2013-09-01 12:45:00,81.3,36.5,29.12,South,176,3.1,3.1,20,0.00,,,0.00,VWS V13.01,2013-09-01 16:45:00,
2013-09-01 12:50:00,81.5,36.6,29.12,WNW,301,2.2,2.2,20,0.00,,,0.00,VWS V13.01,2013-09-01 16:50:00,
2013-09-01 12:55:00,81.5,36.6,29.12,WNW,290,4.0,4.0,20,0.00,,,0.00,VWS V13.01,2013-09-01 16:55:00,
2013-09-01 13:00:00,81.5,36.6,29.12,SSE,166,3.1,3.1,20,0.00,,,0.00,VWS V13.01,2013-09-01 17:00:00,
2013-09-01 13:05:00,81.9,35.6,29.12,West,267,3.6,4.9,19,0.00,,,0.00,VWS V13.01,2013-09-01 17:05:00,
2013-09-01 13:10:00,81.9,35.6,29.12,NE,39,0.0,3.6,19,0.00,,,0.00,VWS V13.01,2013-09-01 17:10:00,
2013-09-01 13:15:00,82.0,35.8,29.15,NW,306,3.1,4.0,19,0.00,,,0.00,VWS V13.01,2013-09-01 17:15:00,
2013-09-01 13:20:00,82.2,35.9,29.15,SW,228,3.6,3.6,19,0.00,,,0.00,VWS V13.01,2013-09-01 17:20:00,
2013-09-01 13:25:00,82.0,37.0,29.15,NW,311,3.1,3.1,20,0.00,,,0.00,VWS V13.01,2013-09-01 17:25:00,
2013-09-01 13:30:00,82.2,37.2,29.12,WNW,295,4.9,4.9,20,0.00,,,0.00,VWS V13.01,2013-09-01 17:30:00,
2013-09-01 13:35:00,82.0,37.0,29.12,WNW,298,0.0,4.9,20,0.00,,,0.00,VWS V13.01,2013-09-01 17:35:00,
2013-09-01 13:40:00,82.8,36.3,29.12,SW,226,3.1,3.6,19,0.00,,,0.00,VWS V13.01,2013-09-01 17:40:00,
2013-09-01 13:45:00,83.1,36.6,29.12,NW,314,0.0,0.0,19,0.00,,,0.00,VWS V13.01,2013-09-01 17:45:00,
2013-09-01 13:50:00,83.7,32.8,29.12,SSW,196,3.6,3.6,16,0.00,,,0.00,VWS V13.01,2013-09-01 17:50:00,
2013-09-01 13:55:00,83.8,29.6,29.12,South,186,4.9,6.3,14,0.00,,,0.00,VWS V13.01,2013-09-01 17:55:00,
2013-09-01 14:00:00,83.5,29.3,29.12,West,259,2.2,4.9,14,0.00,,,0.00,VWS V13.01,2013-09-01 18:00:00,
2013-09-01 14:05:00,83.5,29.3,29.12,SW,234,5.4,5.8,14,0.00,,,0.00,VWS V13.01,2013-09-01 18:05:00,
2013-09-01 14:10:00,83.3,32.5,29.12,North,0,3.1,3.1,16,0.00,,,0.00,VWS V13.01,2013-09-01 18:10:00,
2013-09-01 14:15:00,83.8,29.6,29.12,WSW,237,4.9,4.9,14,0.00,,,0.00,VWS V13.01,2013-09-01 18:15:00,
2013-09-01 14:20:00,83.8,29.6,29.12,SW,227,2.7,3.1,14,0.00,,,0.00,VWS V13.01,2013-09-01 18:20:00,
2013-09-01 14:25:00,84.2,28.1,29.12,WSW,243,3.6,5.4,13,0.00,,,0.00,VWS V13.01,2013-09-01 18:25:00,
2013-09-01 14:30:00,84.0,29.8,29.12,SW,222,2.7,3.1,14,0.00,,,0.00,VWS V13.01,2013-09-01 18:30:00,
2013-09-01 14:35:00,84.2,28.1,29.12,SW,214,2.7,2.7,13,0.00,,,0.00,VWS V13.01,2013-09-01 18:35:00,
2013-09-01 14:40:00,84.4,28.2,29.12,WSW,241,0.0,6.3,13,0.00,,,0.00,VWS V13.01,2013-09-01 18:40:00,
2013-09-01 14:45:00,84.9,28.6,29.12,WSW,253,0.0,2.2,13,0.00,,,0.00,VWS V13.01,2013-09-01 18:45:00,
2013-09-01 14:50:00,85.3,28.9,29.12,NNW,330,2.7,4.0,13,0.00,,,0.00,VWS V13.01,2013-09-01 18:50:00,
2013-09-01 14:55:00,85.6,29.2,29.12,WSW,251,4.5,6.3,13,0.00,,,0.00,VWS V13.01,2013-09-01 18:55:00,
2013-09-01 15:00:00,86.2,25.6,29.12,WSW,247,3.6,3.6,11,0.00,,,0.00,VWS V13.01,2013-09-01 19:00:00,
2013-09-01 15:05:00,86.2,25.6,29.12,SW,227,4.0,4.0,11,0.00,,,0.00,VWS V13.01,2013-09-01 19:05:00,
2013-09-01 15:10:00,86.0,25.4,29.12,SSW,195,0.0,3.1,11,0.00,,,0.00,VWS V13.01,2013-09-01 19:10:00,
2013-09-01 15:15:00,85.8,25.3,29.12,WSW,249,2.7,3.6,11,0.00,,,0.00,VWS V13.01,2013-09-01 19:15:00,
2013-09-01 15:20:00,85.1,24.7,29.12,WSW,243,2.7,3.6,11,0.00,,,0.00,VWS V13.01,2013-09-01 19:20:00,
2013-09-01 15:25:00,84.9,24.6,29.12,NW,306,0.0,2.7,11,0.00,,,0.00,VWS V13.01,2013-09-01 19:25:00,
2013-09-01 15:30:00,84.9,28.6,29.09,NW,312,3.1,5.4,13,0.00,,,0.00,VWS V13.01,2013-09-01 19:30:00,
2013-09-01 15:35:00,84.7,28.5,29.09,WNW,294,5.4,5.4,13,0.00,,,0.00,VWS V13.01,2013-09-01 19:35:00,
2013-09-01 15:40:00,84.9,24.6,29.09,WNW,299,5.8,5.8,11,0.00,,,0.00,VWS V13.01,2013-09-01 19:40:00,
2013-09-01 15:45:00,85.1,24.7,29.09,SW,232,3.1,6.3,11,0.00,,,0.00,VWS V13.01,2013-09-01 19:45:00,
2013-09-01 15:50:00,85.1,24.7,29.09,West,265,2.7,3.1,11,0.00,,,0.00,VWS V13.01,2013-09-01 19:50:00,
2013-09-01 15:55:00,85.1,24.7,29.09,North,6,2.7,4.0,11,0.00,,,0.00,VWS V13.01,2013-09-01 19:55:00,
2013-09-01 16:00:00,85.1,24.7,29.09,WNW,302,3.1,5.4,11,0.00,,,0.00,VWS V13.01,2013-09-01 20:00:00,
2013-09-01 16:05:00,84.9,24.6,29.09,NW,325,3.6,3.6,11,0.00,,,0.00,VWS V13.01,2013-09-01 20:05:00,
2013-09-01 16:10:00,85.1,24.7,29.09,NNW,331,3.1,3.1,11,0.00,,,0.00,VWS V13.01,2013-09-01 20:10:00,
2013-09-01 16:15:00,85.1,28.8,29.09,West,265,2.7,3.6,13,0.00,,,0.00,VWS V13.01,2013-09-01 20:15:00,
2013-09-01 16:20:00,85.1,28.8,29.09,WSW,254,2.2,2.7,13,0.00,,,0.00,VWS V13.01,2013-09-01 20:20:00,
2013-09-01 16:25:00,85.3,28.9,29.09,NW,325,2.2,2.7,13,0.00,,,0.00,VWS V13.01,2013-09-01 20:25:00,
2013-09-01 16:30:00,85.3,24.9,29.09,WSW,248,2.7,4.0,11,0.00,,,0.00,VWS V13.01,2013-09-01 20:30:00,
2013-09-01 16:35:00,85.3,24.9,29.09,WNW,294,6.3,6.3,11,0.00,,,0.00,VWS V13.01,2013-09-01 20:35:00,
2013-09-01 16:40:00,86.0,25.4,29.09,WNW,292,4.0,5.4,11,0.00,,,0.00,VWS V13.01,2013-09-01 20:40:00,
2013-09-01 16:45:00,86.0,25.4,29.09,WNW,291,0.0,3.6,11,0.00,,,0.00,VWS V13.01,2013-09-01 20:45:00,
2013-09-01 16:50:00,86.0,25.4,29.09,NNW,344,8.3,8.3,11,0.00,,,0.00,VWS V13.01,2013-09-01 20:50:00,
2013-09-01 16:55:00,85.6,25.2,29.09,WNW,298,3.6,3.6,11,0.00,,,0.00,VWS V13.01,2013-09-01 20:55:00,
2013-09-01 17:00:00,85.8,25.3,29.09,WNW,300,2.2,2.7,11,0.00,,,0.00,VWS V13.01,2013-09-01 21:00:00,
2013-09-01 17:05:00,85.5,25.0,29.09,NNW,337,3.1,3.1,11,0.00,,,0.00,VWS V13.01,2013-09-01 21:05:00,
2013-09-01 17:10:00,85.1,24.7,29.09,WSW,238,2.7,3.6,11,0.00,,,0.00,VWS V13.01,2013-09-01 21:10:00,
2013-09-01 17:15:00,85.1,24.7,29.06,West,277,5.4,5.4,11,0.00,,,0.00,VWS V13.01,2013-09-01 21:15:00,
2013-09-01 17:20:00,85.8,25.3,29.06,NW,326,5.4,5.8,11,0.00,,,0.00,VWS V13.01,2013-09-01 21:20:00,
2013-09-01 17:25:00,86.0,25.4,29.06,NW,310,7.2,7.2,11,0.00,,,0.00,VWS V13.01,2013-09-01 21:25:00,
2013-09-01 17:30:00,86.0,25.4,29.09,WSW,253,3.1,3.6,11,0.00,,,0.00,VWS V13.01,2013-09-01 21:30:00,
2013-09-01 17:35:00,86.2,25.6,29.09,WNW,301,7.6,9.6,11,0.00,,,0.00,VWS V13.01,2013-09-01 21:35:00,
2013-09-01 17:40:00,85.8,25.3,29.09,NW,326,5.8,5.8,11,0.00,,,0.00,VWS V13.01,2013-09-01 21:40:00,
2013-09-01 17:45:00,85.5,25.0,29.09,WNW,297,3.6,3.6,11,0.00,,,0.00,VWS V13.01,2013-09-01 21:45:00,
2013-09-01 17:50:00,85.1,24.7,29.09,WNW,286,0.0,2.2,11,0.00,,,0.00,VWS V13.01,2013-09-01 21:50:00,
2013-09-01 17:55:00,85.3,24.9,29.09,NW,305,3.6,5.8,11,0.00,,,0.00,VWS V13.01,2013-09-01 21:55:00,
2013-09-01 18:00:00,85.3,24.9,29.09,SW,218,10.1,10.1,11,0.00,,,0.00,VWS V13.01,2013-09-01 22:00:00,
2013-09-01 18:05:00,84.9,24.6,29.09,WSW,245,9.6,9.6,11,0.00,,,0.00,VWS V13.01,2013-09-01 22:05:00,
2013-09-01 18:10:00,84.9,24.6,29.09,West,276,6.3,9.6,11,0.00,,,0.00,VWS V13.01,2013-09-01 22:10:00,
2013-09-01 18:15:00,84.4,24.2,29.09,WSW,251,2.2,3.1,11,0.00,,,0.00,VWS V13.01,2013-09-01 22:15:00,
2013-09-01 18:20:00,83.8,23.8,29.09,WNW,298,2.7,2.7,11,0.00,,,0.00,VWS V13.01,2013-09-01 22:20:00,
2013-09-01 18:25:00,83.3,23.4,29.09,West,265,3.1,4.9,11,0.00,,,0.00,VWS V13.01,2013-09-01 22:25:00,
2013-09-01 18:30:00,82.9,28.9,29.09,SSW,209,3.1,3.1,14,0.00,,,0.00,VWS V13.01,2013-09-01 22:30:00,
2013-09-01 18:35:00,82.6,28.6,29.09,West,281,0.0,0.0,14,0.00,,,0.00,VWS V13.01,2013-09-01 22:35:00,
2013-09-01 18:40:00,82.2,28.3,29.09,WNW,295,4.0,5.8,14,0.00,,,0.00,VWS V13.01,2013-09-01 22:40:00,
2013-09-01 18:45:00,82.0,28.2,29.09,NW,315,3.1,3.1,14,0.00,,,0.00,VWS V13.01,2013-09-01 22:45:00,
2013-09-01 18:50:00,81.9,28.0,29.09,NNW,334,3.1,3.1,14,0.00,,,0.00,VWS V13.01,2013-09-01 22:50:00,
2013-09-01 18:55:00,81.7,27.9,29.09,NW,306,2.2,2.2,14,0.00,,,0.00,VWS V13.01,2013-09-01 22:55:00,
2013-09-01 19:00:00,81.5,32.5,29.09,NW,305,0.0,2.2,17,0.00,,,0.00,VWS V13.01,2013-09-01 23:00:00,
2013-09-01 19:05:00,81.3,32.4,29.09,WNW,302,0.0,0.0,17,0.00,,,0.00,VWS V13.01,2013-09-01 23:05:00,
2013-09-01 19:10:00,81.1,32.2,29.09,NW,312,0.0,0.0,17,0.00,,,0.00,VWS V13.01,2013-09-01 23:10:00,
2013-09-01 19:15:00,81.0,32.1,29.09,WNW,298,2.2,3.1,17,0.00,,,0.00,VWS V13.01,2013-09-01 23:15:00,
2013-09-01 19:20:00,81.0,34.9,29.09,NW,306,2.7,2.7,19,0.00,,,0.00,VWS V13.01,2013-09-01 23:20:00,
2013-09-01 19:25:00,80.8,34.7,29.09,WNW,294,3.6,5.8,19,0.00,,,0.00,VWS V13.01,2013-09-01 23:25:00,
2013-09-01 19:30:00,80.6,35.9,29.12,NNW,345,0.0,2.7,20,0.00,,,0.00,VWS V13.01,2013-09-01 23:30:00,
2013-09-01 19:35:00,80.6,35.9,29.12,WNW,302,3.1,3.1,20,0.00,,,0.00,VWS V13.01,2013-09-01 23:35:00,
2013-09-01 19:41:00,80.4,35.7,29.12,WNW,296,0.0,0.0,20,0.00,,,0.00,VWS V13.01,2013-09-01 23:41:00,
2013-09-01 19:45:00,80.4,35.7,29.09,NW,316,2.7,2.7,20,0.00,,,0.00,VWS V13.01,2013-09-01 23:45:00,
2013-09-01 19:51:00,80.2,36.8,29.09,NW,326,0.0,0.0,21,0.00,,,0.00,VWS V13.01,2013-09-01 23:51:00,
2013-09-01 19:56:00,79.9,36.5,29.09,NNW,338,0.0,2.7,21,0.00,,,0.00,VWS V13.01,2013-09-01 23:56:00,
2013-09-01 20:01:00,79.7,36.3,29.12,NNW,338,0.0,0.0,21,0.00,,,0.00,VWS V13.01,2013-09-02 00:01:00,
2013-09-01 20:06:00,79.7,37.5,29.12,NNW,338,0.0,0.0,22,0.00,,,0.00,VWS V13.01,2013-09-02 00:06:00,
2013-09-01 20:11:00,79.5,37.4,29.12,NNW,338,0.0,0.0,22,0.00,,,0.00,VWS V13.01,2013-09-02 00:11:00,
2013-09-01 20:16:00,79.3,37.2,29.12,NNW,338,0.0,0.0,22,0.00,,,0.00,VWS V13.01,2013-09-02 00:16:00,
2013-09-01 20:21:00,79.2,38.2,29.12,NNW,338,0.0,0.0,23,0.00,,,0.00,VWS V13.01,2013-09-02 00:21:00,
2013-09-01 20:26:00,78.8,37.9,29.12,NNW,338,0.0,0.0,23,0.00,,,0.00,VWS V13.01,2013-09-02 00:26:00,
2013-09-01 20:31:00,78.6,38.8,29.12,NNW,338,0.0,0.0,24,0.00,,,0.00,VWS V13.01,2013-09-02 00:31:00,
2013-09-01 20:36:00,78.6,38.8,29.12,NNW,338,0.0,0.0,24,0.00,,,0.00,VWS V13.01,2013-09-02 00:36:00,
2013-09-01 20:41:00,78.8,37.9,29.12,NNW,338,0.0,0.0,23,0.00,,,0.00,VWS V13.01,2013-09-02 00:41:00,
2013-09-01 20:46:00,78.6,38.8,29.12,NNW,338,0.0,0.0,24,0.00,,,0.00,VWS V13.01,2013-09-02 00:46:00,
2013-09-01 20:51:00,78.4,40.8,29.12,NNW,337,3.1,3.1,26,0.00,,,0.00,VWS V13.01,2013-09-02 00:51:00,
2013-09-01 20:56:00,78.4,39.7,29.12,NW,322,0.0,0.0,25,0.00,,,0.00,VWS V13.01,2013-09-02 00:56:00,
2013-09-01 21:01:00,78.4,39.7,29.12,North,0,0.0,2.2,25,0.00,,,0.00,VWS V13.01,2013-09-02 01:01:00,
2013-09-01 21:06:00,78.3,40.6,29.12,North,0,0.0,0.0,26,0.00,,,0.00,VWS V13.01,2013-09-02 01:06:00,
2013-09-01 21:11:00,77.9,40.3,29.12,North,0,0.0,0.0,26,0.00,,,0.00,VWS V13.01,2013-09-02 01:11:00,
2013-09-01 21:16:00,77.5,40.0,29.12,North,0,0.0,0.0,26,0.00,,,0.00,VWS V13.01,2013-09-02 01:16:00,
2013-09-01 21:21:00,77.2,41.6,29.12,North,0,0.0,0.0,28,0.00,,,0.00,VWS V13.01,2013-09-02 01:21:00,
2013-09-01 21:26:00,76.8,43.1,29.12,North,0,0.0,0.0,30,0.00,,,0.00,VWS V13.01,2013-09-02 01:26:00,
2013-09-01 21:31:00,76.5,43.6,29.12,North,0,0.0,0.0,31,0.00,,,0.00,VWS V13.01,2013-09-02 01:31:00,
2013-09-01 21:36:00,76.1,43.3,29.12,North,0,0.0,0.0,31,0.00,,,0.00,VWS V13.01,2013-09-02 01:36:00,
2013-09-01 21:41:00,76.1,44.1,29.12,North,0,0.0,0.0,32,0.00,,,0.00,VWS V13.01,2013-09-02 01:41:00,
2013-09-01 21:46:00,75.9,45.6,29.12,ENE,58,0.0,0.0,34,0.00,,,0.00,VWS V13.01,2013-09-02 01:46:00,
2013-09-01 21:51:00,75.7,45.4,29.12,ENE,58,0.0,0.0,34,0.00,,,0.00,VWS V13.01,2013-09-02 01:51:00,
2013-09-01 21:56:00,75.6,45.2,29.12,ENE,58,0.0,0.0,34,0.00,,,0.00,VWS V13.01,2013-09-02 01:56:00,
2013-09-01 22:01:00,75.2,44.9,29.12,ENE,58,0.0,0.0,34,0.00,,,0.00,VWS V13.01,2013-09-02 02:01:00,
2013-09-01 22:06:00,75.0,46.3,29.12,ENE,58,0.0,0.0,36,0.00,,,0.00,VWS V13.01,2013-09-02 02:06:00,
2013-09-01 22:11:00,74.7,46.0,29.12,ENE,58,0.0,0.0,36,0.00,,,0.00,VWS V13.01,2013-09-02 02:11:00,
2013-09-01 22:16:00,74.5,46.5,29.12,ENE,58,0.0,0.0,37,0.00,,,0.00,VWS V13.01,2013-09-02 02:16:00,
2013-09-01 22:21:00,74.3,46.4,29.12,ENE,58,0.0,0.0,37,0.00,,,0.00,VWS V13.01,2013-09-02 02:21:00,
2013-09-01 22:26:00,74.1,46.9,29.12,ENE,58,0.0,0.0,38,0.00,,,0.00,VWS V13.01,2013-09-02 02:26:00,
2013-09-01 22:31:00,73.9,46.8,29.12,ENE,58,0.0,0.0,38,0.00,,,0.00,VWS V13.01,2013-09-02 02:31:00,
2013-09-01 22:36:00,73.6,49.1,29.12,ENE,58,0.0,0.0,42,0.00,,,0.00,VWS V13.01,2013-09-02 02:36:00,
2013-09-01 22:41:00,73.4,49.6,29.12,ENE,58,0.0,0.0,43,0.00,,,0.00,VWS V13.01,2013-09-02 02:41:00,
2013-09-01 22:46:00,73.4,49.6,29.12,North,353,0.0,0.0,43,0.00,,,0.00,VWS V13.01,2013-09-02 02:46:00,
2013-09-01 22:51:00,73.4,49.6,29.12,North,353,0.0,0.0,43,0.00,,,0.00,VWS V13.01,2013-09-02 02:51:00,
2013-09-01 22:56:00,73.2,49.4,29.12,North,353,0.0,0.0,43,0.00,,,0.00,VWS V13.01,2013-09-02 02:56:00,
2013-09-01 23:01:00,73.0,49.2,29.12,North,353,0.0,0.0,43,0.00,,,0.00,VWS V13.01,2013-09-02 03:01:00,
2013-09-01 23:06:00,72.9,49.1,29.12,North,353,0.0,0.0,43,0.00,,,0.00,VWS V13.01,2013-09-02 03:06:00,
2013-09-01 23:11:00,72.7,49.5,29.12,North,353,0.0,0.0,44,0.00,,,0.00,VWS V13.01,2013-09-02 03:11:00,
2013-09-01 23:16:00,72.5,49.4,29.12,North,353,0.0,0.0,44,0.00,,,0.00,VWS V13.01,2013-09-02 03:16:00,
2013-09-01 23:21:00,72.5,49.4,29.12,North,353,0.0,0.0,44,0.00,,,0.00,VWS V13.01,2013-09-02 03:21:00,
2013-09-01 23:26:00,72.3,49.8,29.12,North,353,0.0,0.0,45,0.00,,,0.00,VWS V13.01,2013-09-02 03:26:00,
2013-09-01 23:31:00,72.1,49.7,29.12,North,353,0.0,0.0,45,0.00,,,0.00,VWS V13.01,2013-09-02 03:31:00,
2013-09-01 23:36:00,72.0,50.7,29.12,North,353,0.0,0.0,47,0.00,,,0.00,VWS V13.01,2013-09-02 03:36:00,
2013-09-01 23:41:00,71.8,50.5,29.12,North,353,0.0,0.0,47,0.00,,,0.00,VWS V13.01,2013-09-02 03:41:00,
2013-09-01 23:46:00,71.8,50.5,29.12,North,353,0.0,0.0,47,0.00,,,0.00,VWS V13.01,2013-09-02 03:46:00,
2013-09-01 23:51:00,71.6,50.3,29.12,ESE,123,2.7,2.7,47,0.00,,,0.00,VWS V13.01,2013-09-02 03:51:00,
2013-09-01 23:56:00,71.4,51.3,29.12,SE,126,0.0,0.0,49,0.00,,,0.00,VWS V13.01,2013-09-02 03:56:00,